Powrót do katalogu

H-3 R/B

AktywnyGTO
NORAD 62877·ROCKET BODY·🇯🇵 Japan

Wystrzelony Feb 2, 2025 z Tanegashima Space Center

Loading…

TLE

Starzejące sięSource: Space-Track

Epoka: Sep 14, 2026, 05:15 UTC

1 62877U 25023B   26257.21940250  .00001003  00000-0  63224-3 0  9991
2 62877  21.4444  65.8774 7196401 239.7379  31.6088  2.36649214 13812

Śledź H-3 R/B w czasie rzeczywistym z AllMySat

Download on the App Store